Hlavní strana
METAR-TAF:

METAR-TAF

Letiště :

Williamson County Regional Airport

Marion, Illinois, Spojené státy americké

zeměpisná šířka: 37-45-01N, zeměpisná délka: 089-00-04W, výška: 144 m

Aktuální stav počasí

Zpráva byla vytvořena před 14 minutami, v 11:15 UTC
Jižní vítr 4 kt
Teplota 3°C
Vlhkost vzduchu 100%
Tlak 1012 hPa
Viditelnost: 11.3 km
Zataženo ve výšce 600 ft

METAR: KMWA 241115Z AUTO 17004KT 7SM OVC006 03/03 A2987 RMK AO2 T00250025

Čas: 05:29 (11:29 UTC)


TAF: chybějící

Stav a předpovědi počasí z více než 4 000 letišť (zprávy METAR a TAF).

Červené a žluté tečky na mapě představují dostupné meteorologické stanice.

Když kurzor umístíte na tečku, zobrazí se název stanice.

Pak kliknutím zobrazíte stav a předpověď počasí.

Chcete-li změnit mapu, kliknutím na zelené tlačítko se znaménkem +mapu přiblížíte, kliknutím na zelené tlačítko se znaménkem – mapu oddálíte a kliknutím na zelené šipky přejdete na sousední mapy.


METAR-TAF: